sat.trackr.live / text

‹ back to catalog

STARLINK-5011

NORAD 53925 · 2022-119AR

PAYLOAD ACTIVE UNKNOWN

§ Identity

Operator
Country
US
Launch date
2022-09-24
Launch site
AFETR
Launch vehicle
Mass (kg)
RCS (m²)

Purposes: comms

External: N2YO · Heavens-Above · Gunter

§ Orbital elements

Epoch: 2026-05-24T19:39:57.940704Z

Period
95.44 min
Inclination
53.2139°
Eccentricity
0.0001452
Mean motion
15.08835859 rev/d
Perigee alt
538.8 km
Apogee alt
540.8 km
Semi-major
6,917.9 km
B*
5.5701e-5
RAAN
331.9627°
Arg perigee
92.6752°
Mean anomaly
267.4407°
Rev number
20,332

§ Raw data

STARLINK-50111 53925U 22119AR  26144.81942061  .00000599  00000+0  55701-4 0  99912 53925  53.2139 331.9627 0001452  92.6752 267.4407 15.08835859203325

JSON: /api/v1/satellites/53925 · /tle

For live sub-satellite position, see the globe view (requires WebGL).

§ Visibility from observer

Set your observer location to see the next 7 days of passes ≥ 10°. The values pass through the URL so the page stays shareable.

No JS? Fill the form by hand. The geolocation button needs JavaScript.